FW7889 Weather Reports


time (UTC)temp
C
wind
direction
speed
KPH
gust
KPH
rain 1hr
cm
rain 24hr
cm
rain mn
cm
humidity
%
barometer
mb
20260903211117 23 321 4.8 4.8 0.00 0.00 0.00 70 1067.6
20260903210114 23 319 3.2 4.8 0.00 0.00 0.00 69 1067.8
20260903205112 23 337 6.4 8.0 0.00 0.00 0.00 71 1067.8
20260903204109 23 341 4.8 4.8 0.00 0.00 0.00 71 1068.0
20260903203105 23 315 1.6 3.2 0.00 0.00 0.00 71 1067.7
20260903202102 23 307 4.8 4.8 0.00 0.00 0.00 70 1068.1
20260903201102 25 340 4.8 4.8 0.00 0.00 0.00 68 1068.1
20260903200058 24 324 3.2 4.8 0.00 0.00 0.00 71 1067.9
20260903195055 23 337 3.2 4.8 0.00 0.00 0.00 71 1067.7
20260903194051 23 318 8.0 11.3 0.00 0.00 0.00 71 1067.9
20260903193048 23 332 4.8 4.8 0.00 0.00 0.00 70 1067.9
20260903192045 23 330 4.8 4.8 0.00 0.00 0.00 71 1067.8
20260903191042 24 344 8.0 9.7 0.00 0.00 0.00 70 1068.0
20260903190041 23 296 3.2 3.2 0.00 0.00 0.00 71 1068.2
20260903185038 23 300 1.6 1.6 0.00 0.00 0.00 71 1067.9
20260903184035 23 311 1.6 3.2 0.00 0.00 0.00 71 1068.0
20260903183035 25 319 1.6 3.2 0.00 0.00 0.00 67 1067.9
20260903182030 23 247 8.0 9.7 0.00 0.00 0.00 69 1067.9
20260903181028 25 293 3.2 3.2 0.00 0.00 0.00 70 1068.0
20260903180024 24 250 4.8 8.0 0.00 0.00 0.00 72 1068.1
20260903175022 23 321 4.8 4.8 0.00 0.00 0.00 70 1068.1
20260903174017 24 330 3.2 4.8 0.00 0.00 0.00 70 1068.0
20260903173014 23 297 3.2 3.2 0.00 0.00 0.00 70 1068.1
20260903172010 23 273 1.6 1.6 0.00 0.00 0.00 75 1068.1
20260903171006 23 349 4.8 8.0 0.00 0.00 0.00 76 1068.4
20260903170006 23 247 4.8 4.8 0.00 0.00 0.00 79 1068.2
20260903165000 22 298 1.6 1.6 0.00 0.00 0.00 83 1068.4
20260903163954 22 297 3.2 3.2 0.00 0.00 0.00 88 1068.4
20260903162952 22 263 8.0 9.7 0.00 0.00 0.00 89 1068.7
20260903161950 22 260 11.3 12.9 0.00 0.00 0.00 92 1068.8
20260903160947 21 300 1.6 1.6 0.00 0.00 0.00 94 1068.8
20260903155945 21 259 3.2 3.2 0.00 0.00 0.00 95 1068.5
20260903154941 21 255 6.4 8.0 0.00 0.00 0.00 98 1068.8
20260903153938 20 257 1.6 1.6 0.00 0.00 0.00 99 1068.9
20260903152935 20 280 0.0 1.6 0.00 0.00 0.00 99 1068.8
20260903151932 19 265 4.8 4.8 0.00 0.00 0.00 99 1068.8
20260903150927 19 261 0.0 0.0 0.00 0.00 0.00 99 1068.9
20260903145922 19 261 6.4 9.7 0.00 0.00 0.00 99 1069.1
20260903144918 18 260 3.2 3.2 0.00 0.00 0.00 99 1068.8
20260903143913 18 250 4.8 4.8 0.00 0.00 0.00 99 1068.9
20260903142911 18 255 6.4 8.0 0.00 0.00 0.00 99 1068.8
20260903141908 18 279 6.4 8.0 0.00 0.00 0.00 99 1068.8
20260903140905 18 273 3.2 3.2 0.00 0.00 0.00 99 1068.5
20260903135901 18 250 6.4 8.0 0.00 0.00 0.00 99 1068.8
20260903134901 18 285 6.4 9.7 0.00 0.00 0.00 99 1068.8
20260903133900 18 257 8.0 9.7 0.00 0.00 0.00 99 1068.9
20260903132857 18 259 0.0 1.6 0.00 0.00 0.00 99 1068.5
20260903131852 18 265 3.2 3.2 0.00 0.00 0.00 99 1068.9
20260903130851 18 262 1.6 1.6 0.00 0.00 0.00 99 1069.1
20260903125851 18 266 1.6 1.6 0.00 0.00 0.00 99 1068.9
20260903124851 18 252 6.4 8.0 0.00 0.00 0.00 99 1068.9
20260903123851 18 269 1.6 1.6 0.00 0.00 0.00 99 1069.0
20260903122851 18 266 1.6 3.2 0.00 0.00 0.00 99 1068.8
20260903121850 18 275 3.2 3.2 0.00 0.00 0.00 99 1068.7
20260903120847 18 266 1.6 1.6 0.00 0.00 0.00 99 1068.5
20260903115845 18 265 3.2 3.2 0.00 0.00 0.00 99 1068.4
20260903114839 18 262 1.6 1.6 0.00 0.00 0.00 99 1068.8
20260903113836 18 276 1.6 3.2 0.00 0.00 0.00 99 1068.5
20260903112834 18 264 3.2 3.2 0.00 0.00 0.00 99 1068.5
20260903111828 18 276 4.8 4.8 0.00 0.00 0.00 99 1068.3
20260903110825 18 256 4.8 4.8 0.00 0.00 0.00 99 1068.7
20260903105820 18 262 3.2 3.2 0.00 0.00 0.00 99 1068.5
20260903104815 18 264 3.2 4.8 0.00 0.00 0.00 99 1068.4
20260903103812 18 267 3.2 3.2 0.00 0.00 0.00 99 1068.3
20260903102809 18 273 3.2 3.2 0.00 0.00 0.00 99 1068.7
20260903101808 17 261 4.8 4.8 0.00 0.00 0.00 99 1068.7
20260903100805 17 250 1.6 3.2 0.00 0.00 0.00 99 1068.5
20260903095802 17 269 0.0 0.0 0.00 0.00 0.00 99 1068.5
20260903094758 17 265 0.0 0.0 0.00 0.00 0.00 99 1068.3
20260903093754 17 270 1.6 1.6 0.00 0.00 0.00 99 1068.3
20260903092749 17 263 0.0 0.0 0.00 0.00 0.00 99 1068.3
20260903091749 17 272 0.0 0.0 0.00 0.00 0.00 99 1068.2
20260903090745 17 272 0.0 0.0 0.00 0.00 0.00 99 1068.7
20260903085743 17 265 0.0 0.0 0.00 0.00 0.00 99 1068.3
20260903084742 17 269 0.0 0.0 0.00 0.00 0.00 99 1068.4
20260903083738 17 269 0.0 0.0 0.00 0.00 0.00 99 1068.3
20260903082737 17 272 0.0 0.0 0.00 0.00 0.00 99 1068.1
20260903081733 17 263 0.0 0.0 0.00 0.00 0.00 99 1068.3
20260903080731 17 272 0.0 0.0 0.00 0.00 0.00 99 1068.3
20260903075728 17 263 0.0 0.0 0.00 0.00 0.00 99 1068.5
20260903074727 17 272 1.6 1.6 0.00 0.00 0.00 99 1068.5
20260903073724 17 286 1.6 1.6 0.00 0.00 0.00 99 1068.7
20260903072721 17 275 1.6 1.6 0.00 0.00 0.00 99 1068.5
20260903071719 17 284 3.2 3.2 0.00 0.00 0.00 99 1068.5
20260903070714 17 288 3.2 3.2 0.00 0.00 0.00 99 1068.5
20260903065711 17 282 3.2 3.2 0.00 0.00 0.00 99 1068.7
20260903064709 17 284 1.6 3.2 0.00 0.00 0.00 99 1068.7
20260903063707 17 244 4.8 4.8 0.00 0.00 0.00 99 1068.7
20260903062703 17 271 3.2 3.2 0.00 0.00 0.00 99 1068.3
20260903061659 17 285 1.6 1.6 0.00 0.00 0.00 99 1068.2
20260903060659 17 274 0.0 0.0 0.00 0.00 0.00 99 1067.9
20260903055658 17 265 0.0 0.0 0.00 0.00 0.00 99 1068.2
20260903054657 17 272 4.8 8.0 0.00 0.00 0.00 99 1068.7
20260903053654 17 264 1.6 1.6 0.00 0.00 0.00 99 1068.4
20260903052651 17 268 6.4 8.0 0.00 0.00 0.00 99 1068.4
20260903051647 17 273 1.6 1.6 0.00 0.00 0.00 99 1068.4
20260903050643 17 266 4.8 8.0 0.00 0.00 0.00 99 1068.4
20260903045643 17 241 0.0 1.6 0.00 0.00 0.00 99 1068.4
20260903044641 17 274 1.6 1.6 0.00 0.00 0.00 99 1068.7
20260903043640 17 277 1.6 3.2 0.00 0.00 0.00 99 1068.8
20260903042638 17 274 3.2 3.2 0.00 0.00 0.00 99 1069.1
20260903041636 17 272 4.8 4.8 0.00 0.00 0.00 99 1068.9
20260903040636 18 287 11.3 12.9 0.00 0.00 0.00 99 1068.5
20260903035633 18 268 4.8 4.8 0.00 0.53 0.53 99 1068.5
20260903034629 18 296 4.8 4.8 0.00 0.53 0.53 99 1068.5
20260903033626 18 271 4.8 4.8 0.00 0.53 0.53 99 1068.3
20260903032627 18 273 0.0 0.0 0.00 0.53 0.53 99 1068.0
20260903031623 18 287 4.8 8.0 0.18 0.53 0.53 99 1067.9
20260903030620 18 284 1.6 3.2 0.00 0.51 0.51 99 1067.7
20260903025616 17 292 4.8 4.8 0.30 0.51 0.51 99 1068.4
20260903024612 17 297 6.4 8.0 0.13 0.46 0.46 99 1068.0
20260903023608 18 301 3.2 4.8 0.48 0.41 0.41 99 1067.4
20260903022608 17 275 6.4 8.0 0.43 0.33 0.33 99 1069.0
20260903021608 17 290 6.4 8.0 0.30 0.25 0.25 99 1069.3
20260903020604 18 274 9.7 12.9 0.30 0.18 0.18 99 1069.5
20260903015559 18 265 1.6 1.6 0.30 0.13 0.13 99 1069.2
20260903014554 18 243 1.6 3.2 0.18 0.08 0.08 99 1069.4
20260903013555 18 210 4.8 4.8 0.13 0.05 0.05 99 1069.1
20260903012554 18 212 4.8 4.8 0.00 0.03 0.03 99 1069.4
20260903011554 18 241 4.8 8.0 0.18 0.03 0.03 99 1069.3
20260903010549 18 219 8.0 11.3 0.00 0.00 0.00 99 1069.6
20260903005548 18 200 4.8 8.0 0.00 0.00 0.00 99 1070.0
20260903004544 18 216 6.4 9.7 0.00 0.00 0.00 99 1069.8
20260903003540 18 229 6.4 9.7 0.00 0.00 0.00 99 1069.6
20260903002536 18 215 6.4 8.0 0.00 0.00 0.00 99 1069.7
20260903001531 18 223 3.2 4.8 0.00 0.00 0.00 99 1069.9
20260903000526 18 249 3.2 3.2 0.00 0.00 0.00 99 1069.9
20260902235525 18 202 4.8 8.0 0.00 0.00 0.00 99 1070.4
20260902234520 18 201 6.4 9.7 0.00 0.00 0.00 99 1070.2
20260902233519 18 216 6.4 9.7 0.00 0.00 0.00 99 1070.2
20260902232519 19 244 3.2 4.8 0.00 0.00 0.00 99 1069.3
20260902231514 19 238 4.8 8.0 0.00 0.00 0.00 99 1068.9
20260902230514 19 221 4.8 4.8 0.00 0.00 0.00 98 1068.4
20260902225509 19 194 12.9 16.1 0.00 0.00 0.00 98 1068.5
20260902224508 19 189 9.7 12.9 0.00 0.00 0.00 97 1069.0
20260902223506 20 204 3.2 3.2 0.00 0.00 0.00 97 1068.9
20260902222504 20 203 8.0 9.7 0.00 0.00 0.00 97 1068.9
20260902221503 20 199 3.2 3.2 0.00 0.00 0.00 97 1069.1
20260902220459 20 169 8.0 11.3 0.00 0.00 0.00 97 1069.4
20260902215455 20 201 4.8 9.7 0.00 0.00 0.00 96 1070.3
20260902214450 20 238 3.2 3.2 0.00 0.00 0.00 96 1070.5
20260902213446 20 228 3.2 3.2 0.00 0.00 0.00 96 1071.5
20260902212446 21 282 3.2 3.2 0.00 0.00 0.00 95 1071.7